Home   Weather   Vallejo   Past weeks
Flag for USA

Past Weather in Vallejo, California, USA — Yesterday and Last 2 Weeks

Now
50 °F

Sunny.


Feels Like: 49 °F
Forecast: 63 / 45 °F
Wind: 3 mph from Southwest

Location: Napa County Airport

Current Time: Apr 1, 2020 at 10:34:57 am

Latest Report: Apr 1, 2020 at 9:54 am


Visibility: 10 mi

Pressure: 30.00 "Hg

Humidity: 74%

Dew Point: 42 °F

Location of VallejoLocation

Past Weather in Vallejo — Graph

°F

Vallejo Temperature Yesterday

Maximum temperature yesterday: 66 °F (at 2:54 pm)
Minimum temperature yesterday: 49 °F (at 12:54 am)
Average temperature yesterday: 56 °F

High & Low Weather Summary for the Past Weeks

 TemperatureHumidityPressure
High69 °F (Mar 22, 3:54 pm)100% (Mar 19, 4:11 am)30.32 "Hg (Mar 19, 4:11 am)
Low31 °F (Mar 27, 5:54 am)42% (Mar 26, 1:54 pm)29.82 "Hg (Mar 18, 5:54 pm)
Average49 °F80%30.07 "Hg
* Reported Mar 17 8:54 am — Apr 1 8:54 am, Vallejo. Weather by CustomWeather, © 2020

Note: Actual official high and low records may vary slightly from our data, if they occured in-between our weather recording intervals... More about our weather records

Vallejo Weather History for the Previous 24 Hours

Scroll right to see more
 ConditionsComfort  
Time TempWeatherWind HumidityBarometerVisibility
8:54 am
Wed, Apr 1
47 °FSunny.6 mph80%29.99 "Hg10 mi
7:54 am41 °FSunny.No wind93%29.99 "Hg10 mi
6:54 am39 °FSunny.3 mph93%29.98 "Hg10 mi
5:54 am42 °FClear.No wind85%29.97 "Hg10 mi
4:54 am42 °FClear.No wind85%29.97 "Hg10 mi
3:54 am44 °FClear.10 mph82%29.97 "Hg10 mi
2:54 am45 °FClear.9 mph80%29.98 "Hg10 mi
1:54 am49 °FClear.16 mph74%29.99 "Hg10 mi
12:54 am50 °FClear.12 mph86%30.00 "Hg10 mi
11:54 pm
Tue, Mar 31
50 °FClear.9 mph89%30.01 "Hg10 mi
10:54 pm51 °FClear.10 mph89%30.02 "Hg10 mi
9:54 pm50 °FClear.7 mph89%30.03 "Hg10 mi
9:15 pm52 °FPassing clouds.7 mph89%30.06 "Hg10 mi
7:54 pm54 °FClear.16 mph86%30.03 "Hg10 mi
6:54 pm57 °FSunny.17 mph81%30.03 "Hg10 mi
5:54 pm62 °FSunny.17 mph70%30.04 "Hg10 mi
4:54 pm65 °FSunny.15 mph63%30.06 "Hg10 mi
3:54 pm66 °FScattered clouds.12 mph63%30.08 "Hg10 mi
2:54 pm66 °FPassing clouds.15 mph63%30.10 "Hg10 mi
1:54 pm63 °FScattered clouds.10 mph68%30.13 "Hg10 mi
1:01 pm63 °FPartly sunny.14 mph68%30.17 "Hg10 mi
11:54 am63 °FPartly sunny.12 mph68%30.18 "Hg10 mi
10:54 am59 °FPartly sunny.9 mph75%30.19 "Hg10 mi
Weather by CustomWeather, © 2020

See weather overview

Advertising